| time (UTC) | temp C | wind direction | speed KPH | gust KPH | rain 1hr cm | rain 24hr cm | rain mn cm | humidity % | barometer mb |
| 20260902185004 | 40 | 49 | 6.4 | 12.9 | 0.00 | 0.00 | 0.00 | 38 | 1014.1 |
| 20260902184504 | 40 | 69 | 8.0 | 12.9 | 0.00 | 0.00 | 0.00 | 36 | 1014.2 |
| 20260902184003 | 40 | 157 | 8.0 | 17.7 | 0.00 | 0.00 | 0.00 | 38 | 1014.2 |
| 20260902183504 | 40 | 185 | 8.0 | 19.3 | 0.00 | 0.00 | 0.00 | 37 | 1014.3 |
| 20260902183004 | 39 | 212 | 9.7 | 19.3 | 0.00 | 0.00 | 0.00 | 38 | 1014.4 |
| 20260902182504 | 38 | 239 | 8.0 | 19.3 | 0.00 | 0.00 | 0.00 | 39 | 1014.5 |
| 20260902182004 | 38 | 237 | 6.4 | 19.3 | 0.00 | 0.00 | 0.00 | 40 | 1014.6 |
| 20260902181504 | 37 | 223 | 6.4 | 11.3 | 0.00 | 0.00 | 0.00 | 42 | 1014.7 |
| 20260902181004 | 37 | 187 | 6.4 | 11.3 | 0.00 | 0.00 | 0.00 | 43 | 1014.8 |
| 20260902180503 | 37 | 194 | 6.4 | 12.9 | 0.00 | 0.00 | 0.00 | 42 | 1014.9 |
| 20260902180006 | 37 | 169 | 6.4 | 16.1 | 0.00 | 0.00 | 0.00 | 40 | 1015.1 |
| 20260902175504 | 37 | 164 | 8.0 | 17.7 | 0.00 | 0.00 | 0.00 | 41 | 1015.1 |
| 20260902175004 | 37 | 176 | 8.0 | 17.7 | 0.00 | 0.00 | 0.00 | 42 | 1015.1 |
| 20260902174503 | 37 | 180 | 8.0 | 20.9 | 0.00 | 0.00 | 0.00 | 42 | 1015.3 |
| 20260902174003 | 37 | 186 | 6.4 | 20.9 | 0.00 | 0.00 | 0.00 | 43 | 1015.3 |
| 20260902173503 | 37 | 137 | 3.2 | 12.9 | 0.00 | 0.00 | 0.00 | 44 | 1015.4 |
| 20260902173003 | 36 | 168 | 6.4 | 12.9 | 0.00 | 0.00 | 0.00 | 45 | 1015.6 |
| 20260902172503 | 36 | 208 | 8.0 | 22.5 | 0.00 | 0.00 | 0.00 | 44 | 1015.5 |
| 20260902172004 | 36 | 197 | 9.7 | 22.5 | 0.00 | 0.00 | 0.00 | 46 | 1015.7 |
| 20260902171503 | 36 | 198 | 8.0 | 20.9 | 0.00 | 0.00 | 0.00 | 47 | 1015.8 |
| 20260902171004 | 35 | 205 | 8.0 | 22.5 | 0.00 | 0.00 | 0.00 | 47 | 1015.9 |
| 20260902170525 | 35 | 189 | 8.0 | 22.5 | 0.00 | 0.00 | 0.00 | 48 | 1016.0 |
| 20260902170004 | 35 | 175 | 9.7 | 22.5 | 0.00 | 0.00 | 0.00 | 50 | 1016.0 |
| 20260902165504 | 35 | 183 | 11.3 | 22.5 | 0.00 | 0.00 | 0.00 | 48 | 1016.1 |
| 20260902165004 | 35 | 205 | 8.0 | 20.9 | 0.00 | 0.00 | 0.00 | 49 | 1016.1 |
| 20260902164504 | 34 | 203 | 8.0 | 17.7 | 0.00 | 0.00 | 0.00 | 50 | 1016.2 |
| 20260902164003 | 34 | 200 | 8.0 | 19.3 | 0.00 | 0.00 | 0.00 | 50 | 1016.2 |
| 20260902163504 | 33 | 205 | 6.4 | 19.3 | 0.00 | 0.00 | 0.00 | 51 | 1016.2 |
| 20260902163004 | 33 | 202 | 6.4 | 12.9 | 0.00 | 0.00 | 0.00 | 54 | 1016.2 |
| 20260902162504 | 33 | 208 | 6.4 | 12.9 | 0.00 | 0.00 | 0.00 | 54 | 1016.3 |
| 20260902162004 | 33 | 206 | 6.4 | 17.7 | 0.00 | 0.00 | 0.00 | 54 | 1016.3 |
| 20260902161504 | 33 | 227 | 6.4 | 17.7 | 0.00 | 0.00 | 0.00 | 54 | 1016.3 |
| 20260902161024 | 32 | 237 | 6.4 | 17.7 | 0.00 | 0.00 | 0.00 | 57 | 1016.4 |
| 20260902160503 | 32 | 212 | 6.4 | 12.9 | 0.00 | 0.00 | 0.00 | 57 | 1016.4 |
| 20260902160005 | 32 | 209 | 6.4 | 12.9 | 0.00 | 0.00 | 0.00 | 60 | 1016.3 |
| 20260902155504 | 32 | 247 | 6.4 | 12.9 | 0.00 | 0.00 | 0.00 | 59 | 1016.3 |
| 20260902155004 | 32 | 229 | 8.0 | 20.9 | 0.00 | 0.00 | 0.00 | 60 | 1016.3 |
| 20260902154503 | 31 | 198 | 9.7 | 20.9 | 0.00 | 0.00 | 0.00 | 60 | 1016.3 |
| 20260902154003 | 31 | 196 | 9.7 | 20.9 | 0.00 | 0.00 | 0.00 | 62 | 1016.3 |
| 20260902153503 | 31 | 195 | 9.7 | 20.9 | 0.00 | 0.00 | 0.00 | 63 | 1016.2 |
| 20260902153004 | 31 | 197 | 9.7 | 22.5 | 0.00 | 0.00 | 0.00 | 64 | 1016.3 |
| 20260902152503 | 31 | 197 | 9.7 | 27.4 | 0.00 | 0.00 | 0.00 | 64 | 1016.3 |
| 20260902152003 | 30 | 196 | 11.3 | 27.4 | 0.00 | 0.00 | 0.00 | 66 | 1016.2 |
| 20260902151503 | 30 | 207 | 9.7 | 25.7 | 0.00 | 0.00 | 0.00 | 66 | 1016.2 |
| 20260902151003 | 30 | 219 | 6.4 | 16.1 | 0.00 | 0.00 | 0.00 | 70 | 1016.2 |
| 20260902150503 | 29 | 202 | 8.0 | 16.1 | 0.00 | 0.00 | 0.00 | 72 | 1016.2 |
| 20260902150003 | 29 | 187 | 9.7 | 19.3 | 0.00 | 0.00 | 0.00 | 73 | 1016.2 |
| 20260902145524 | 28 | 194 | 9.7 | 19.3 | 0.00 | 0.00 | 0.00 | 73 | 1016.2 |
| 20260902145024 | 28 | 205 | 8.0 | 17.7 | 0.00 | 0.00 | 0.00 | 75 | 1016.3 |
| 20260902144503 | 28 | 188 | 9.7 | 19.3 | 0.00 | 0.00 | 0.00 | 76 | 1016.4 |
| 20260902144003 | 28 | 187 | 9.7 | 19.3 | 0.00 | 0.00 | 0.00 | 77 | 1016.5 |
| 20260902143503 | 27 | 192 | 8.0 | 16.1 | 0.00 | 0.00 | 0.00 | 79 | 1016.6 |
| 20260902143003 | 27 | 185 | 8.0 | 16.1 | 0.00 | 0.00 | 0.00 | 81 | 1016.6 |
| 20260902142503 | 27 | 188 | 6.4 | 12.9 | 0.00 | 0.00 | 0.00 | 82 | 1016.6 |
| 20260902142003 | 26 | 197 | 6.4 | 12.9 | 0.00 | 0.00 | 0.00 | 83 | 1016.6 |
| 20260902141503 | 26 | 196 | 8.0 | 12.9 | 0.00 | 0.00 | 0.00 | 84 | 1016.6 |
| 20260902141003 | 26 | 193 | 8.0 | 12.9 | 0.00 | 0.00 | 0.00 | 85 | 1016.6 |
| 20260902140503 | 25 | 186 | 6.4 | 12.9 | 0.00 | 0.00 | 0.00 | 86 | 1016.6 |
| 20260902140003 | 25 | 192 | 3.2 | 12.9 | 0.00 | 0.00 | 0.00 | 87 | 1016.6 |
| 20260902135503 | 25 | 205 | 6.4 | 11.3 | 0.00 | 0.00 | 0.00 | 88 | 1016.5 |
| 20260902135004 | 25 | 197 | 6.4 | 11.3 | 0.00 | 0.00 | 0.00 | 88 | 1016.5 |
| 20260902134503 | 24 | 193 | 8.0 | 16.1 | 0.00 | 0.00 | 0.00 | 89 | 1016.5 |
| 20260902134024 | 24 | 195 | 6.4 | 16.1 | 0.00 | 0.00 | 0.00 | 90 | 1016.5 |
| 20260902133503 | 23 | 191 | 1.6 | 11.3 | 0.00 | 0.00 | 0.00 | 90 | 1016.4 |
| 20260902133024 | 23 | 192 | 1.6 | 8.0 | 0.00 | 0.00 | 0.00 | 90 | 1016.4 |
| 20260902132524 | 23 | 192 | 0.0 | 1.6 | 0.00 | 0.00 | 0.00 | 90 | 1016.4 |
| 20260902132003 | 23 | 192 | 0.0 | 1.6 | 0.00 | 0.00 | 0.00 | 89 | 1016.2 |
| 20260902131503 | 23 | 192 | 0.0 | 3.2 | 0.00 | 0.00 | 0.00 | 88 | 1016.1 |
| 20260902131003 | 22 | 192 | 0.0 | 3.2 | 0.00 | 0.00 | 0.00 | 88 | 1016.1 |
| 20260902130503 | 22 | 192 | 0.0 | 1.6 | 0.00 | 0.00 | 0.00 | 87 | 1016.0 |
| 20260902130003 | 22 | 192 | 0.0 | 1.6 | 0.00 | 0.00 | 0.00 | 87 | 1016.0 |
| 20260902125524 | 22 | 192 | 0.0 | 1.6 | 0.00 | 0.00 | 0.00 | 87 | 1016.0 |
| 20260902125003 | 22 | 192 | 0.0 | 1.6 | 0.00 | 0.00 | 0.00 | 86 | 1016.0 |
| 20260902124504 | 22 | 0 | 0.0 | 0.0 | 0.00 | 0.00 | 0.00 | 86 | 1015.9 |
| 20260902124003 | 22 | 0 | 0.0 | 0.0 | 0.00 | 0.00 | 0.00 | 85 | 1015.8 |
| 20260902123503 | 22 | 0 | 0.0 | 0.0 | 0.00 | 0.00 | 0.00 | 85 | 1015.8 |
| 20260902123003 | 22 | 0 | 0.0 | 0.0 | 0.00 | 0.00 | 0.00 | 85 | 1015.8 |
| 20260902122504 | 22 | 0 | 0.0 | 0.0 | 0.00 | 0.00 | 0.00 | 85 | 1015.8 |
| 20260902122025 | 22 | 0 | 0.0 | 0.0 | 0.00 | 0.00 | 0.00 | 85 | 1015.7 |
| 20260902121504 | 22 | 0 | 0.0 | 0.0 | 0.00 | 0.00 | 0.00 | 85 | 1015.6 |
| 20260902121004 | 22 | 0 | 0.0 | 0.0 | 0.00 | 0.00 | 0.00 | 85 | 1015.6 |
| 20260902120525 | 22 | 0 | 0.0 | 0.0 | 0.00 | 0.00 | 0.00 | 85 | 1015.7 |
| 20260902120004 | 22 | 0 | 0.0 | 0.0 | 0.00 | 0.00 | 0.00 | 85 | 1015.7 |
| 20260902115504 | 22 | 192 | 0.0 | 1.6 | 0.00 | 0.00 | 0.00 | 85 | 1015.6 |
| 20260902115004 | 23 | 192 | 0.0 | 1.6 | 0.00 | 0.00 | 0.00 | 85 | 1015.6 |
| 20260902114504 | 23 | 0 | 0.0 | 0.0 | 0.00 | 0.00 | 0.00 | 85 | 1015.7 |
| 20260902114004 | 23 | 0 | 0.0 | 0.0 | 0.00 | 0.00 | 0.00 | 84 | 1015.6 |
| 20260902113526 | 23 | 192 | 0.0 | 1.6 | 0.00 | 0.00 | 0.00 | 84 | 1015.6 |
| 20260902113025 | 23 | 192 | 0.0 | 1.6 | 0.00 | 0.00 | 0.00 | 84 | 1015.7 |
| 20260902112504 | 23 | 192 | 0.0 | 1.6 | 0.00 | 0.00 | 0.00 | 84 | 1015.6 |
| 20260902112004 | 23 | 192 | 1.6 | 1.6 | 0.00 | 0.00 | 0.00 | 84 | 1015.5 |
| 20260902111525 | 23 | 192 | 1.6 | 1.6 | 0.00 | 0.00 | 0.00 | 84 | 1015.5 |
| 20260902111004 | 23 | 192 | 0.0 | 1.6 | 0.00 | 0.00 | 0.00 | 84 | 1015.5 |
| 20260902110504 | 23 | 0 | 0.0 | 0.0 | 0.00 | 0.00 | 0.00 | 83 | 1015.5 |
| 20260902110007 | 23 | 192 | 0.0 | 1.6 | 0.00 | 0.00 | 0.00 | 83 | 1015.5 |
| 20260902105525 | 23 | 192 | 0.0 | 1.6 | 0.00 | 0.00 | 0.00 | 83 | 1015.5 |
| 20260902105004 | 23 | 192 | 0.0 | 1.6 | 0.00 | 0.00 | 0.00 | 83 | 1015.5 |
| 20260902104525 | 23 | 192 | 0.0 | 1.6 | 0.00 | 0.00 | 0.00 | 83 | 1015.5 |
| 20260902104025 | 23 | 0 | 0.0 | 0.0 | 0.00 | 0.00 | 0.00 | 83 | 1015.6 |
| 20260902103504 | 23 | 192 | 0.0 | 1.6 | 0.00 | 0.00 | 0.00 | 83 | 1015.6 |
| 20260902103004 | 23 | 192 | 0.0 | 1.6 | 0.00 | 0.00 | 0.00 | 83 | 1015.5 |
| 20260902102504 | 23 | 192 | 0.0 | 1.6 | 0.00 | 0.00 | 0.00 | 82 | 1015.4 |
| 20260902102004 | 23 | 192 | 0.0 | 1.6 | 0.00 | 0.00 | 0.00 | 82 | 1015.5 |
| 20260902101504 | 23 | 192 | 0.0 | 1.6 | 0.00 | 0.00 | 0.00 | 82 | 1015.4 |
| 20260902101004 | 23 | 192 | 1.6 | 3.2 | 0.00 | 0.00 | 0.00 | 82 | 1015.3 |
| 20260902100504 | 23 | 192 | 1.6 | 3.2 | 0.00 | 0.00 | 0.00 | 82 | 1015.3 |
| 20260902100004 | 24 | 192 | 1.6 | 3.2 | 0.00 | 0.00 | 0.00 | 82 | 1015.4 |
| 20260902095504 | 24 | 192 | 1.6 | 3.2 | 0.00 | 0.00 | 0.00 | 82 | 1015.2 |
| 20260902095025 | 24 | 192 | 1.6 | 3.2 | 0.00 | 0.00 | 0.00 | 81 | 1015.2 |
| 20260902094525 | 24 | 192 | 1.6 | 3.2 | 0.00 | 0.00 | 0.00 | 81 | 1015.3 |
| 20260902094004 | 24 | 192 | 1.6 | 6.4 | 0.00 | 0.00 | 0.00 | 81 | 1015.3 |
| 20260902093525 | 24 | 194 | 3.2 | 6.4 | 0.00 | 0.00 | 0.00 | 81 | 1015.3 |
| 20260902093004 | 24 | 195 | 1.6 | 6.4 | 0.00 | 0.00 | 0.00 | 81 | 1015.3 |
| 20260902092504 | 24 | 195 | 1.6 | 6.4 | 0.00 | 0.00 | 0.00 | 81 | 1015.3 |
| 20260902092004 | 24 | 195 | 1.6 | 3.2 | 0.00 | 0.00 | 0.00 | 81 | 1015.4 |
| 20260902091525 | 24 | 195 | 1.6 | 3.2 | 0.00 | 0.00 | 0.00 | 80 | 1015.3 |
| 20260902091004 | 24 | 195 | 1.6 | 3.2 | 0.00 | 0.00 | 0.00 | 80 | 1015.4 |
| 20260902090504 | 24 | 195 | 1.6 | 3.2 | 0.00 | 0.00 | 0.00 | 80 | 1015.4 |
| 20260902090005 | 24 | 195 | 0.0 | 3.2 | 0.00 | 0.00 | 0.00 | 80 | 1015.4 |
| 20260902085525 | 25 | 195 | 0.0 | 1.6 | 0.00 | 0.00 | 0.00 | 80 | 1015.4 |
| 20260902085004 | 25 | 195 | 1.6 | 3.2 | 0.00 | 0.00 | 0.00 | 79 | 1015.4 |
| 20260902084504 | 25 | 195 | 1.6 | 3.2 | 0.00 | 0.00 | 0.00 | 79 | 1015.4 |
| 20260902084004 | 25 | 195 | 1.6 | 3.2 | 0.00 | 0.00 | 0.00 | 79 | 1015.4 |
| 20260902083503 | 25 | 195 | 1.6 | 3.2 | 0.00 | 0.00 | 0.00 | 79 | 1015.4 |
| 20260902083004 | 25 | 195 | 0.0 | 3.2 | 0.00 | 0.00 | 0.00 | 79 | 1015.4 |
| 20260902082504 | 25 | 195 | 0.0 | 1.6 | 0.00 | 0.00 | 0.00 | 78 | 1015.5 |
| 20260902082004 | 25 | 195 | 0.0 | 1.6 | 0.00 | 0.00 | 0.00 | 78 | 1015.5 |
| 20260902081503 | 25 | 195 | 0.0 | 1.6 | 0.00 | 0.00 | 0.00 | 78 | 1015.5 |
| 20260902081003 | 25 | 195 | 0.0 | 1.6 | 0.00 | 0.00 | 0.00 | 78 | 1015.5 |
| 20260902080504 | 25 | 195 | 0.0 | 1.6 | 0.00 | 0.00 | 0.00 | 78 | 1015.6 |
| 20260902080004 | 25 | 195 | 0.0 | 1.6 | 0.00 | 0.00 | 0.00 | 78 | 1015.5 |
| 20260902075524 | 25 | 0 | 0.0 | 0.0 | 0.00 | 0.00 | 0.00 | 77 | 1015.6 |
| 20260902075004 | 26 | 0 | 0.0 | 0.0 | 0.00 | 0.00 | 0.00 | 77 | 1015.6 |
| 20260902074525 | 26 | 195 | 0.0 | 1.6 | 0.00 | 0.00 | 0.00 | 77 | 1015.4 |
| 20260902074004 | 26 | 195 | 0.0 | 1.6 | 0.00 | 0.00 | 0.00 | 76 | 1015.5 |
| 20260902073504 | 26 | 195 | 0.0 | 1.6 | 0.00 | 0.00 | 0.00 | 75 | 1015.6 |
| 20260902073025 | 26 | 195 | 0.0 | 1.6 | 0.00 | 0.00 | 0.00 | 75 | 1015.6 |
| 20260902072504 | 26 | 195 | 0.0 | 1.6 | 0.00 | 0.00 | 0.00 | 75 | 1015.6 |
| 20260902072025 | 26 | 195 | 0.0 | 3.2 | 0.00 | 0.00 | 0.00 | 75 | 1015.6 |
| 20260902071525 | 26 | 195 | 1.6 | 3.2 | 0.00 | 0.00 | 0.00 | 75 | 1015.6 |
| 20260902071025 | 26 | 195 | 1.6 | 3.2 | 0.00 | 0.00 | 0.00 | 75 | 1015.6 |
| 20260902070504 | 26 | 195 | 1.6 | 3.2 | 0.00 | 0.00 | 0.00 | 75 | 1015.6 |
| 20260902070005 | 27 | 195 | 1.6 | 3.2 | 0.00 | 0.00 | 0.00 | 74 | 1015.6 |
| 20260902065504 | 27 | 195 | 1.6 | 3.2 | 0.00 | 0.00 | 0.00 | 74 | 1015.6 |
| 20260902065003 | 27 | 195 | 0.0 | 3.2 | 0.00 | 0.00 | 0.00 | 74 | 1015.7 |
| 20260902064504 | 27 | 195 | 1.6 | 3.2 | 0.00 | 0.00 | 0.00 | 73 | 1015.6 |
| 20260902064004 | 27 | 195 | 1.6 | 6.4 | 0.00 | 0.00 | 0.00 | 73 | 1015.6 |
| 20260902063504 | 27 | 195 | 1.6 | 6.4 | 0.00 | 0.00 | 0.00 | 73 | 1015.5 |
| 20260902063003 | 27 | 195 | 1.6 | 6.4 | 0.00 | 0.00 | 0.00 | 73 | 1015.6 |
| 20260902062503 | 27 | 195 | 0.0 | 3.2 | 0.00 | 0.00 | 0.00 | 73 | 1015.6 |
| 20260902062004 | 27 | 194 | 1.6 | 6.4 | 0.00 | 0.00 | 0.00 | 73 | 1015.7 |
| 20260902061504 | 27 | 192 | 1.6 | 6.4 | 0.00 | 0.00 | 0.00 | 72 | 1015.6 |
| 20260902061045 | 27 | 191 | 1.6 | 6.4 | 0.00 | 0.00 | 0.00 | 72 | 1015.6 |
| 20260902060504 | 27 | 191 | 1.6 | 6.4 | 0.00 | 0.00 | 0.00 | 72 | 1015.6 |
| 20260902060003 | 28 | 191 | 1.6 | 6.4 | 0.00 | 0.00 | 0.00 | 72 | 1015.6 |
| 20260902055504 | 28 | 191 | 3.2 | 6.4 | 0.00 | 0.00 | 0.00 | 72 | 1015.6 |
| 20260902055004 | 28 | 191 | 3.2 | 6.4 | 0.00 | 0.00 | 0.00 | 72 | 1015.6 |
| 20260902054525 | 28 | 189 | 3.2 | 9.7 | 0.00 | 0.00 | 0.00 | 71 | 1015.6 |
| 20260902054004 | 28 | 186 | 3.2 | 9.7 | 0.00 | 0.00 | 0.00 | 72 | 1015.6 |
| 20260902053503 | 28 | 183 | 3.2 | 9.7 | 0.00 | 0.00 | 0.00 | 71 | 1015.7 |
| 20260902053004 | 28 | 179 | 6.4 | 12.9 | 0.00 | 0.00 | 0.00 | 71 | 1015.6 |
| 20260902052525 | 28 | 172 | 6.4 | 12.9 | 0.00 | 0.00 | 0.00 | 71 | 1015.6 |
| 20260902052003 | 28 | 174 | 6.4 | 9.7 | 0.00 | 0.00 | 0.00 | 70 | 1015.6 |
| 20260902051503 | 28 | 176 | 6.4 | 9.7 | 0.00 | 0.00 | 0.00 | 70 | 1015.6 |
| 20260902051003 | 28 | 176 | 6.4 | 9.7 | 0.00 | 0.00 | 0.00 | 70 | 1015.6 |
| 20260902050504 | 28 | 168 | 6.4 | 9.7 | 0.00 | 0.00 | 0.00 | 69 | 1015.6 |
| 20260902050007 | 28 | 167 | 3.2 | 11.3 | 0.00 | 0.00 | 0.00 | 69 | 1015.6 |
| 20260902045503 | 29 | 172 | 3.2 | 11.3 | 0.00 | 0.00 | 0.00 | 68 | 1015.7 |
| 20260902045003 | 29 | 162 | 3.2 | 11.3 | 0.00 | 0.00 | 0.00 | 68 | 1015.6 |
| 20260902044503 | 29 | 146 | 3.2 | 11.3 | 0.00 | 0.00 | 0.00 | 67 | 1015.6 |
| 20260902044003 | 29 | 137 | 3.2 | 8.0 | 0.00 | 0.00 | 0.00 | 67 | 1015.5 |
| 20260902043524 | 29 | 130 | 3.2 | 8.0 | 0.00 | 0.00 | 0.00 | 67 | 1015.6 |
| 20260902043003 | 29 | 134 | 3.2 | 9.7 | 0.00 | 0.00 | 0.00 | 67 | 1015.6 |
| 20260902042503 | 29 | 141 | 3.2 | 9.7 | 0.00 | 0.00 | 0.00 | 66 | 1015.6 |
| 20260902042024 | 30 | 143 | 6.4 | 12.9 | 0.00 | 0.00 | 0.00 | 66 | 1015.6 |
| 20260902041504 | 30 | 143 | 8.0 | 16.1 | 0.00 | 0.00 | 0.00 | 66 | 1015.7 |
| 20260902041003 | 30 | 142 | 6.4 | 16.1 | 0.00 | 0.00 | 0.00 | 66 | 1015.6 |
| 20260902040503 | 30 | 157 | 6.4 | 9.7 | 0.00 | 0.00 | 0.00 | 65 | 1015.6 |
| 20260902040003 | 30 | 155 | 6.4 | 12.9 | 0.00 | 0.00 | 0.00 | 65 | 1015.5 |
| 20260902035503 | 30 | 138 | 8.0 | 16.1 | 0.00 | 0.00 | 0.00 | 65 | 1015.5 |
| 20260902035003 | 30 | 133 | 8.0 | 19.3 | 0.00 | 0.00 | 0.00 | 65 | 1015.4 |
| 20260902034503 | 30 | 130 | 6.4 | 19.3 | 0.00 | 0.00 | 0.00 | 64 | 1015.5 |
| 20260902034024 | 30 | 133 | 3.2 | 9.7 | 0.00 | 0.00 | 0.00 | 63 | 1015.4 |
| 20260902033503 | 30 | 137 | 6.4 | 9.7 | 0.00 | 0.00 | 0.00 | 62 | 1015.3 |
| 20260902033024 | 30 | 130 | 3.2 | 9.7 | 0.00 | 0.00 | 0.00 | 62 | 1015.3 |
| 20260902032503 | 30 | 116 | 3.2 | 8.0 | 0.00 | 0.00 | 0.00 | 62 | 1015.3 |
| 20260902032003 | 30 | 108 | 3.2 | 12.9 | 0.00 | 0.00 | 0.00 | 61 | 1015.1 |
| 20260902031504 | 30 | 112 | 6.4 | 12.9 | 0.00 | 0.00 | 0.00 | 61 | 1015.0 |
| 20260902031024 | 30 | 114 | 6.4 | 12.9 | 0.00 | 0.00 | 0.00 | 61 | 1014.9 |
| 20260902030503 | 30 | 118 | 6.4 | 12.9 | 0.00 | 0.00 | 0.00 | 60 | 1014.8 |
| 20260902030004 | 31 | 123 | 6.4 | 12.9 | 0.00 | 0.00 | 0.00 | 59 | 1014.8 |
| 20260902025503 | 31 | 120 | 3.2 | 12.9 | 0.00 | 0.00 | 0.00 | 58 | 1014.7 |
| 20260902025003 | 31 | 120 | 3.2 | 8.0 | 0.00 | 0.00 | 0.00 | 58 | 1014.5 |
| 20260902024503 | 31 | 118 | 3.2 | 8.0 | 0.00 | 0.00 | 0.00 | 58 | 1014.4 |
| 20260902024003 | 31 | 114 | 3.2 | 8.0 | 0.00 | 0.00 | 0.00 | 57 | 1014.2 |
| 20260902023524 | 31 | 111 | 3.2 | 9.7 | 0.00 | 0.00 | 0.00 | 57 | 1014.2 |
| 20260902023003 | 31 | 111 | 3.2 | 9.7 | 0.00 | 0.00 | 0.00 | 57 | 1014.1 |
| 20260902022503 | 31 | 120 | 3.2 | 8.0 | 0.00 | 0.00 | 0.00 | 56 | 1014.0 |
| 20260902022003 | 31 | 127 | 3.2 | 8.0 | 0.00 | 0.00 | 0.00 | 55 | 1013.8 |
| 20260902021503 | 32 | 126 | 3.2 | 8.0 | 0.00 | 0.00 | 0.00 | 55 | 1013.8 |
| 20260902021003 | 32 | 124 | 3.2 | 9.7 | 0.00 | 0.00 | 0.00 | 55 | 1013.7 |
| 20260902020503 | 32 | 125 | 6.4 | 9.7 | 0.00 | 0.00 | 0.00 | 55 | 1013.8 |
| 20260902020003 | 32 | 121 | 6.4 | 12.9 | 0.00 | 0.00 | 0.00 | 54 | 1013.7 |
| 20260902015525 | 32 | 125 | 6.4 | 12.9 | 0.00 | 0.00 | 0.00 | 54 | 1013.7 |
| 20260902015003 | 32 | 125 | 6.4 | 12.9 | 0.00 | 0.00 | 0.00 | 53 | 1013.7 |
| 20260902014503 | 32 | 117 | 6.4 | 16.1 | 0.00 | 0.00 | 0.00 | 53 | 1013.7 |
| 20260902014003 | 32 | 122 | 6.4 | 16.1 | 0.00 | 0.00 | 0.00 | 52 | 1013.5 |
| 20260902013503 | 33 | 126 | 6.4 | 12.9 | 0.00 | 0.00 | 0.00 | 51 | 1013.6 |
| 20260902013003 | 33 | 114 | 6.4 | 12.9 | 0.00 | 0.00 | 0.00 | 51 | 1013.6 |
| 20260902012524 | 33 | 112 | 6.4 | 12.9 | 0.00 | 0.00 | 0.00 | 51 | 1013.4 |
| 20260902012003 | 33 | 123 | 6.4 | 12.9 | 0.00 | 0.00 | 0.00 | 51 | 1013.4 |
| 20260902011503 | 33 | 126 | 8.0 | 17.7 | 0.00 | 0.00 | 0.00 | 51 | 1013.3 |
| 20260902011024 | 33 | 124 | 9.7 | 17.7 | 0.00 | 0.00 | 0.00 | 51 | 1013.2 |
| 20260902010503 | 33 | 124 | 9.7 | 19.3 | 0.00 | 0.00 | 0.00 | 50 | 1013.0 |
| 20260902010003 | 33 | 125 | 8.0 | 19.3 | 0.00 | 0.00 | 0.00 | 50 | 1013.1 |
| 20260902005503 | 34 | 130 | 6.4 | 16.1 | 0.00 | 0.00 | 0.00 | 49 | 1013.1 |
| 20260902005003 | 34 | 125 | 6.4 | 12.9 | 0.00 | 0.00 | 0.00 | 49 | 1013.1 |
| 20260902004503 | 34 | 117 | 6.4 | 12.9 | 0.00 | 0.00 | 0.00 | 49 | 1013.1 |
| 20260902004003 | 34 | 119 | 6.4 | 16.1 | 0.00 | 0.00 | 0.00 | 48 | 1013.1 |
| 20260902003503 | 35 | 113 | 8.0 | 19.3 | 0.00 | 0.00 | 0.00 | 48 | 1013.2 |
| 20260902003003 | 35 | 109 | 8.0 | 20.9 | 0.00 | 0.00 | 0.00 | 48 | 1013.3 |
| 20260902002503 | 35 | 110 | 9.7 | 20.9 | 0.00 | 0.00 | 0.00 | 48 | 1013.4 |
| 20260902002004 | 35 | 118 | 9.7 | 22.5 | 0.00 | 0.00 | 0.00 | 47 | 1013.4 |
| 20260902001504 | 35 | 137 | 8.0 | 22.5 | 0.00 | 0.00 | 0.00 | 47 | 1013.3 |
| 20260902001004 | 35 | 146 | 8.0 | 12.9 | 0.00 | 0.00 | 0.00 | 47 | 1013.2 |
| 20260902000504 | 35 | 148 | 9.7 | 19.3 | 0.00 | 0.00 | 0.00 | 46 | 1013.2 |
| 20260902000004 | 35 | 142 | 9.7 | 19.3 | 0.00 | 0.00 | 0.00 | 46 | 1013.2 |
| 20260901235504 | 36 | 132 | 9.7 | 19.3 | 0.00 | 0.00 | 0.00 | 46 | 1013.2 |
| 20260901235004 | 36 | 139 | 9.7 | 19.3 | 0.00 | 0.00 | 0.00 | 46 | 1013.2 |
| 20260901234504 | 36 | 138 | 9.7 | 19.3 | 0.00 | 0.00 | 0.00 | 45 | 1013.1 |
| 20260901234004 | 36 | 128 | 9.7 | 19.3 | 0.00 | 0.00 | 0.00 | 45 | 1013.1 |
| 20260901233504 | 36 | 130 | 9.7 | 22.5 | 0.00 | 0.00 | 0.00 | 45 | 1013.2 |
| 20260901233025 | 36 | 143 | 11.3 | 27.4 | 0.00 | 0.00 | 0.00 | 44 | 1013.2 |
| 20260901232504 | 37 | 142 | 11.3 | 27.4 | 0.00 | 0.00 | 0.00 | 43 | 1013.1 |
| 20260901232004 | 37 | 129 | 9.7 | 19.3 | 0.00 | 0.00 | 0.00 | 43 | 1013.0 |
| 20260901231525 | 37 | 133 | 8.0 | 20.9 | 0.00 | 0.00 | 0.00 | 42 | 1013.1 |
| 20260901231004 | 37 | 126 | 8.0 | 20.9 | 0.00 | 0.00 | 0.00 | 40 | 1013.0 |
| 20260901230504 | 37 | 100 | 8.0 | 17.7 | 0.00 | 0.00 | 0.00 | 39 | 1012.9 |
| 20260901230004 | 37 | 94 | 8.0 | 17.7 | 0.00 | 0.00 | 0.00 | 39 | 1013.0 |
| 20260901225504 | 37 | 90 | 6.4 | 16.1 | 0.00 | 0.00 | 0.00 | 39 | 1013.0 |
| 20260901225004 | 37 | 100 | 8.0 | 17.7 | 0.00 | 0.00 | 0.00 | 39 | 1013.1 |
| 20260901224504 | 38 | 105 | 9.7 | 19.3 | 0.00 | 0.00 | 0.00 | 39 | 1013.0 |
| 20260901224004 | 38 | 101 | 9.7 | 25.7 | 0.00 | 0.00 | 0.00 | 38 | 1013.0 |
| 20260901223504 | 38 | 101 | 11.3 | 27.4 | 0.00 | 0.00 | 0.00 | 38 | 1013.0 |
| 20260901223004 | 38 | 104 | 11.3 | 27.4 | 0.00 | 0.00 | 0.00 | 37 | 1013.0 |
| 20260901222504 | 38 | 92 | 8.0 | 17.7 | 0.00 | 0.00 | 0.00 | 38 | 1013.0 |
| 20260901222004 | 38 | 77 | 6.4 | 16.1 | 0.00 | 0.00 | 0.00 | 38 | 1013.0 |
| 20260901221504 | 38 | 97 | 3.2 | 11.3 | 0.00 | 0.00 | 0.00 | 38 | 1013.1 |
| 20260901221025 | 38 | 114 | 1.6 | 9.7 | 0.00 | 0.00 | 0.00 | 37 | 1013.0 |
| 20260901220525 | 38 | 113 | 3.2 | 12.9 | 0.00 | 0.00 | 0.00 | 37 | 1013.1 |
| 20260901220025 | 38 | 116 | 8.0 | 17.7 | 0.00 | 0.00 | 0.00 | 36 | 1013.1 |
| 20260901215504 | 39 | 108 | 8.0 | 17.7 | 0.00 | 0.00 | 0.00 | 36 | 1013.2 |
| 20260901215004 | 39 | 89 | 6.4 | 17.7 | 0.00 | 0.00 | 0.00 | 36 | 1013.2 |
| 20260901214504 | 39 | 35 | 3.2 | 17.7 | 0.00 | 0.00 | 0.00 | 36 | 1013.1 |
| 20260901214004 | 39 | 358 | 6.4 | 11.3 | 0.00 | 0.00 | 0.00 | 38 | 1013.1 |
| 20260901213504 | 38 | 356 | 6.4 | 9.7 | 0.00 | 0.00 | 0.00 | 38 | 1013.1 |
| 20260901213004 | 38 | 46 | 6.4 | 16.1 | 0.00 | 0.00 | 0.00 | 37 | 1013.2 |
| 20260901212504 | 38 | 121 | 3.2 | 16.1 | 0.00 | 0.00 | 0.00 | 37 | 1013.3 |
| 20260901212004 | 38 | 126 | 3.2 | 16.1 | 0.00 | 0.00 | 0.00 | 38 | 1013.3 |
| 20260901211503 | 38 | 104 | 8.0 | 16.1 | 0.00 | 0.00 | 0.00 | 38 | 1013.4 |
| 20260901211004 | 38 | 106 | 8.0 | 17.7 | 0.00 | 0.00 | 0.00 | 38 | 1013.5 |
| 20260901210504 | 38 | 86 | 6.4 | 17.7 | 0.00 | 0.00 | 0.00 | 38 | 1013.5 |
| 20260901210004 | 38 | 79 | 9.7 | 22.5 | 0.00 | 0.00 | 0.00 | 39 | 1013.6 |
| 20260901205504 | 38 | 86 | 8.0 | 22.5 | 0.00 | 0.00 | 0.00 | 39 | 1013.8 |
| 20260901205004 | 38 | 58 | 6.4 | 16.1 | 0.00 | 0.00 | 0.00 | 39 | 1013.7 |
| 20260901204504 | 38 | 51 | 6.4 | 12.9 | 0.00 | 0.00 | 0.00 | 40 | 1013.7 |
| 20260901204003 | 37 | 102 | 8.0 | 19.3 | 0.00 | 0.00 | 0.00 | 42 | 1013.9 |
| 20260901203504 | 37 | 120 | 6.4 | 19.3 | 0.00 | 0.00 | 0.00 | 42 | 1014.0 |
| 20260901203004 | 36 | 87 | 6.4 | 16.1 | 0.00 | 0.00 | 0.00 | 42 | 1014.1 |
| 20260901202504 | 36 | 105 | 8.0 | 17.7 | 0.00 | 0.00 | 0.00 | 41 | 1014.1 |
| 20260901202004 | 37 | 117 | 6.4 | 17.7 | 0.00 | 0.00 | 0.00 | 41 | 1014.2 |
| 20260901201504 | 36 | 143 | 6.4 | 16.1 | 0.00 | 0.00 | 0.00 | 44 | 1014.3 |
| 20260901201004 | 36 | 143 | 6.4 | 16.1 | 0.00 | 0.00 | 0.00 | 44 | 1014.4 |
| 20260901200503 | 36 | 134 | 6.4 | 16.1 | 0.00 | 0.00 | 0.00 | 44 | 1014.4 |
| 20260901200004 | 36 | 125 | 8.0 | 16.1 | 0.00 | 0.00 | 0.00 | 43 | 1014.5 |
| 20260901195504 | 36 | 114 | 6.4 | 16.1 | 0.00 | 0.00 | 0.00 | 43 | 1014.6 |
| 20260901195004 | 37 | 152 | 3.2 | 12.9 | 0.00 | 0.00 | 0.00 | 44 | 1014.7 |
| 20260901194503 | 37 | 152 | 3.2 | 12.9 | 0.00 | 0.00 | 0.00 | 43 | 1014.8 |
| 20260901194004 | 37 | 149 | 3.2 | 8.0 | 0.00 | 0.00 | 0.00 | 42 | 1014.8 |
| 20260901193504 | 37 | 173 | 3.2 | 9.7 | 0.00 | 0.00 | 0.00 | 42 | 1014.8 |
| 20260901193004 | 37 | 113 | 3.2 | 11.3 | 0.00 | 0.00 | 0.00 | 42 | 1014.9 |
| 20260901192504 | 37 | 57 | 6.4 | 11.3 | 0.00 | 0.00 | 0.00 | 44 | 1015.0 |
| 20260901192004 | 36 | 148 | 3.2 | 11.3 | 0.00 | 0.00 | 0.00 | 45 | 1015.0 |
| 20260901191504 | 36 | 170 | 3.2 | 11.3 | 0.00 | 0.00 | 0.00 | 44 | 1015.0 |
| 20260901191003 | 36 | 132 | 6.4 | 11.3 | 0.00 | 0.00 | 0.00 | 44 | 1015.2 |
| 20260901190504 | 36 | 99 | 3.2 | 11.3 | 0.00 | 0.00 | 0.00 | 43 | 1015.2 |
| 20260901190004 | 37 | 126 | 3.2 | 11.3 | 0.00 | 0.00 | 0.00 | 44 | 1015.3 |
| 20260901185504 | 37 | 105 | 3.2 | 12.9 | 0.00 | 0.00 | 0.00 | 42 | 1015.5 |